Weather History for KOWD - February, 2013

Change the Weather History Date:

Friday, February 15, 2013

  Actual Average Record
Temperature  
Mean Temperature 34 °F -  
Max Temperature 48 °F 37 °F 55 °F (2006)
Min Temperature 21 °F 19 °F -2 °F (2015)
Degree Days  
Heating Degree Days 30    
Moisture  
Dew Point 30 °F    
Average Humidity 85    
Maximum Humidity 100    
Minimum Humidity 52    
Precipitation  
Precipitation 0.00 in - - ()
Sea Level Pressure  
Sea Level Pressure 29.97 in    
Wind  
Wind Speed 5 mph (South)    
Max Wind Speed 14 mph    
Max Gust Speed 23 mph    
Visibility 6 miles    
Events      
Averages and records for this station are not official NWS values.
T = Trace of Precipitation, MM = Missing Value Source: NWS Daily Summary

Daily Weather History Graph

Daily Weather History Graph

Search for Another Location

Airport or City:

Trip Planner

Search our weather history database for the weather conditions in past years. The results will help you decide how hot, cold, wet, or windy it might be!

Date:

Astronomy

Feb. 15, 2013 Rise Set
Actual Time 6:40 AM EST 5:17 PM EST
Civil Twilight 6:11 AM EST 5:46 PM EST
Nautical Twilight 5:39 AM EST 6:19 PM EST
Astronomical Twilight 5:06 AM EST 6:51 PM EST
Moon 9:07 AM EST (2/15) 11:23 PM EST (2/15)
Length of Visible Light 11h 34m
Length of Day
10h 37m
Waxing Crescent, 30% of the Moon is Illuminated
Feb 15
Waxing Crescent
Feb 17
First Quarter
Feb 25
Full
Mar 4
Last Quarter
Mar 11
New

Hourly Weather History & Observations

Time (EST) Temp. Windchill Dew Point Humidity Pressure Visibility Wind Dir Wind Speed Gust Speed Precip Events Conditions
12:53 AM 23.0 °F 18.4 °F 19.9 °F 88% 30.00 in 10.0 mi SSE 3.5 mph - N/A   Clear
1:53 AM 24.1 °F - 21.0 °F 88% 30.01 in 10.0 mi Calm Calm - N/A   Clear
2:53 AM 23.0 °F - 21.0 °F 92% 30.00 in 8.0 mi Calm Calm - N/A   Clear
3:53 AM 23.0 °F 18.4 °F 21.0 °F 92% 29.99 in 7.0 mi SE 3.5 mph - N/A   Clear
4:53 AM 21.9 °F 15.7 °F 21.0 °F 96% 30.00 in 5.0 mi SSW 4.6 mph - N/A   Partly Cloudy
5:39 AM 30.2 °F 25.4 °F 30.2 °F 100% 30.00 in 4.0 mi South 4.6 mph - N/A   Mostly Cloudy
5:53 AM 30.9 °F 25.2 °F 30.9 °F 100% 30.00 in 3.0 mi South 5.8 mph - N/A   Overcast
6:22 AM 30.2 °F 25.4 °F 30.2 °F 100% 29.99 in 3.0 mi South 4.6 mph - N/A   Overcast
6:44 AM 30.2 °F 25.4 °F 30.2 °F 100% 29.99 in 2.0 mi South 4.6 mph - N/A   Partly Cloudy
6:53 AM 30.0 °F 26.5 °F 30.0 °F 100% 30.00 in 1.2 mi South 3.5 mph - N/A   Clear
7:08 AM 32.0 °F 26.4 °F 30.2 °F 93% 30.00 in 2.0 mi South 5.8 mph - N/A   Partly Cloudy
7:21 AM 33.8 °F 29.6 °F 32.0 °F 93% 30.01 in 2.5 mi South 4.6 mph - N/A   Mostly Cloudy
7:40 AM 33.8 °F 27.0 °F 32.0 °F 93% 30.01 in 2.5 mi South 8.1 mph - N/A   Scattered Clouds
7:53 AM 33.1 °F 26.1 °F 32.0 °F 96% 30.01 in 3.0 mi South 8.1 mph - N/A   Scattered Clouds
8:53 AM 37.0 °F 32.4 °F 32.0 °F 82% 30.01 in 5.0 mi SSE 5.8 mph - N/A   Haze
9:53 AM 41.0 °F 35.8 °F 30.9 °F 67% 30.01 in 7.0 mi SSW 8.1 mph - N/A   Clear
10:53 AM 44.1 °F 39.5 °F 30.9 °F 60% 30.00 in 9.0 mi SSW 8.1 mph 20.7 mph N/A   Clear
11:53 AM 46.9 °F - 30.9 °F 54% 29.97 in 10.0 mi SSW 13.8 mph 19.6 mph N/A   Clear
12:53 PM 48.0 °F - 32.0 °F 54% 29.94 in 10.0 mi SSW 9.2 mph 19.6 mph N/A   Clear
1:53 PM 48.9 °F - 32.0 °F 52% 29.93 in 10.0 mi South 13.8 mph 23.0 mph N/A   Clear
2:53 PM 48.0 °F - 34.0 °F 58% 29.92 in 10.0 mi South 11.5 mph 18.4 mph N/A   Clear
3:53 PM 48.0 °F - 34.0 °F 58% 29.91 in 10.0 mi SSW 11.5 mph - N/A   Clear
4:53 PM 46.0 °F 41.4 °F 34.0 °F 63% 29.92 in 10.0 mi South 9.2 mph - N/A   Clear
5:53 PM 42.1 °F 37.7 °F 34.0 °F 73% 29.92 in 10.0 mi South 6.9 mph - N/A   Clear
6:53 PM 39.9 °F 36.7 °F 35.1 °F 83% 29.94 in 10.0 mi South 4.6 mph - N/A   Clear
7:53 PM 39.0 °F 36.8 °F 35.1 °F 86% 29.94 in 10.0 mi SSE 3.5 mph - N/A   Clear
8:53 PM 37.0 °F 33.3 °F 34.0 °F 89% 29.95 in 9.0 mi SSE 4.6 mph - N/A   Clear
9:53 PM 32.0 °F 26.4 °F 30.9 °F 96% 29.96 in 6.0 mi NNW 5.8 mph - N/A   Clear
10:53 PM 30.0 °F - 28.9 °F 96% 29.95 in 2.5 mi Calm Calm - N/A   Clear
11:01 PM 32.0 °F - 30.2 °F 93% 29.94 in 3.0 mi Calm Calm - N/A   Clear
11:10 PM 30.2 °F - 30.2 °F 100% 29.94 in 2.5 mi Calm Calm - N/A   Clear
11:20 PM 30.2 °F - 30.2 °F 100% 29.95 in 1.5 mi Calm Calm - N/A   Clear
11:46 PM 28.4 °F - 28.4 °F 100% 29.94 in 1.0 mi Calm Calm - N/A   Mist
11:53 PM 30.9 °F - 30.0 °F 96% 29.94 in 1.0 mi Calm Calm - N/A   Mist
11:58 PM 32.0 °F - 30.2 °F 93% 29.94 in 2.0 mi Calm Calm - N/A   Partly Cloudy